Location: Liscomb Game Sanctuary
(45.1633°N, 62.5575°W)
Time: 21:19:41
(UTC-03:00)

Daily predictions for brighter satellites

Satellite Brightness Start Highest point End
(mag) Time Altitude Azimuth Time Altitude Azimuth Time Altitude Azimuth
Meteor 1-24 Rocket 3.9 21:26:22 10° S 21:32:18 88° W 21:38:06 10° N
SL-16 R/B 2.3 21:31:00 10° NNW 21:36:43 80° ENE 21:42:22 10° SSE
Abrixas rocket 3.2 21:33:53 10° WNW 21:37:03 45° N 21:40:11 10° ENE
NOSS 3-4 (A) 4.2 21:30:30 10° NW 21:37:28 66° WSW 21:44:52 10° SSE
Cosmos 1741 Rocket 4.3 21:32:27 10° S 21:37:31 48° ESE 21:42:37 10° NNE
NOSS 3-4 (C) 4.2 21:30:36 10° NW 21:37:34 67° WSW 21:44:59 10° SSE
Lacrosse 4 Rocket 2.4 21:34:17 10° SW 21:38:27 54° NW 21:42:46 10° NNE
CZ-3B DEB 4.4 21:28:45 10° WSW 21:38:28 69° NNW 21:51:33 10° ENE
Cosmos 1908 3.7 21:36:45 10° N 21:40:31 45° ENE 21:44:14 10° SSE
Cosmos 1674 3.3 21:39:27 10° SSE 21:42:56 37° E 21:46:26 10° NNE
In-Cosmos 22 4.3 21:38:14 10° S 21:43:56 85° ESE 21:49:45 10° NNE
ARGOS 3.6 21:39:38 10° SE 21:44:50 50° ENE 21:50:04 10° N
MetOp-A 4.3 21:42:02 10° SSE 21:47:20 67° ENE 21:52:40 10° N
Cosmos 1184 Rocket 3.1 21:44:26 10° SSW 21:47:46 71° W 21:51:10 10° N
Cosmos 1408 Rocket 4.4 21:47:17 10° SSE 21:51:04 31° E 21:54:54 10° NNE
Cosmos 2333 Rocket 4.3 21:52:26 10° NW 21:56:41 22° W 22:00:54 10° SSW
Cosmos 2016 Rocket 4.4 21:50:44 10° N 21:56:51 50° ENE 22:02:50 10° SSE
Cosmos 1076 Rocket 3.7 21:52:37 10° S 21:56:54 57° E 22:01:12 10° NNE
Cosmos 1356 Rocket 3.7 21:53:00 10° S 21:57:06 52° E 22:01:18 10° NNE
Terra 3.3 21:57:45 10° ESE 22:01:26 23° ENE 22:05:08 10° NNE
Tiangong 1 1.2 22:00:07 10° WSW 22:02:47 40° S 22:05:26 10° E
Cosmos 2221 2.9 22:02:05 10° NNW 22:06:28 66° W 22:10:48 10° S
Okean 3 Rocket 3.7 22:02:55 10° S 22:07:26 81° W 22:11:56 10° N
Cosmos 2208 Rocket 4.1 22:03:11 10° NNW 22:08:31 82° WSW 22:13:52 10° SSE
NOAA 11 4.4 22:05:18 10° S 22:10:42 73° WSW 22:16:10 10° NNW
Cosmos 332 Rocket 4.4 22:07:09 10° N 22:11:52 44° ENE 22:15:50 14° SE
EO 1 Delta rocket 4.1 22:13:33 13° SSE 22:17:43 55° ENE 22:22:15 10° N
ERBS 3.7 22:15:12 10° NW 22:18:18 32° NNE 22:21:23 10° E
RESURS DK-1 2.8 22:16:13 10° NNW 22:20:20 53° ENE 22:23:26 16° SE
SPOT 1/Viking Rocket 3.6 22:15:57 13° SSE 22:20:32 69° ENE 22:25:40 10° N
SL-08 RB Rocket 3.7 22:17:55 12° SSE 22:22:06 85° ENE 22:26:44 10° NNW
Meteor 1-21 Rocket 4.3 22:18:17 10° S 22:23:58 88° W 22:29:36 10° N
Cosmos 1242 Rocket 3.2 22:21:07 10° NNW 22:24:46 55° W 22:28:21 10° S
YAOGAN 11 4.3 22:20:43 11° S 22:24:58 77° WSW 22:29:33 10° NNW
Cosmos 1766 Rocket 3.5 22:22:02 10° S 22:26:20 80° E 22:30:42 10° N
Cosmos 841 Rocket 4.5 22:22:28 10° N 22:27:18 35° ENE 22:31:08 15° ESE
USA 245 3.4 22:26:12 14° S 22:28:56 66° W 22:33:01 10° NNW
Cosmos 2297 Rocket 4.0 22:25:39 10° WSW 22:30:48 35° NW 22:36:01 10° NNE
Cosmos 1763 Rocket 4.0 22:26:01 10° N 22:30:57 45° ENE 22:34:34 17° SE
Cosmos 1328 Rocket 3.7 22:28:29 10° N 22:32:48 58° E 22:35:46 19° SSE
Cosmos 2228 Rocket 3.4 22:29:16 10° N 22:33:48 56° ENE 22:36:58 19° SSE
Cosmos 1515 Rocket 4.0 22:32:01 10° N 22:36:13 46° ENE 22:38:53 20° SE
H-2A ROCKET BODY 4.1 22:35:19 15° SSE 22:37:50 18° SE 22:46:14 10° ESE
SL-14 R/B 3.5 22:35:17 18° SSE 22:38:03 52° E 22:41:55 10° NNE
Cosmos 1867 3.6 22:33:01 10° SW 22:38:28 85° NW 22:43:59 10° NE
Cosmos 2061 Rocket 4.4 22:32:50 10° NNW 22:39:07 65° W 22:45:27 10° S
Cosmos 1743 Rocket 3.7 22:39:47 18° SSE 22:42:48 54° E 22:47:02 10° NNE
H-2A R/B 2.8 22:40:13 19° SE 22:42:50 40° ENE 22:46:49 10° N
Cosmos 2263 Rocket 3.1 22:40:06 19° SE 22:42:51 28° ESE 22:47:30 10° NE
Cosmos 1328 3.9 22:40:16 18° S 22:43:06 60° E 22:47:05 10° NNE
Cosmos 1151 Rocket 3.6 22:41:20 10° N 22:45:34 45° ENE 22:48:00 22° SE
Cosmos 1300 2.6 22:43:47 10° N 22:47:39 88° E 22:50:00 22° S
ATLAS 5 CENTAUR R/B 2.8 22:46:53 10° WSW 22:51:30 51° NW 22:56:34 10° NNE
Cosmos 2123 Rocket 3.9 22:45:55 11° S 22:51:57 85° E 22:58:12 10° N
Cosmos 1626 3.3 22:51:04 23° ESE 22:52:10 27° E 22:55:21 10° NNE
Meteor 2-10 4.2 22:46:53 10° N 22:52:29 87° E 22:56:37 19° S
SPOT 5 3.8 22:49:06 11° S 22:53:26 44° W 22:58:17 10° NNW
Lacrosse 5 1.9 22:50:50 10° NW 22:55:54 75° SW 22:58:58 24° SE
USA 234 3.2 22:49:23 10° NE 22:55:59 89° SSE 23:02:32 10° SW
Cosmos 1726 2.7 22:52:49 10° NNW 22:56:25 52° W 22:58:49 19° SSW
Cosmos 2084 4.3 22:53:55 10° WSW 22:57:44 47° NW 23:01:27 10° NNE
Cosmos 468 Rocket 4.3 22:53:00 10° NNW 22:58:04 60° WSW 23:01:35 20° S
IGS 5A 3.5 22:57:29 26° SSE 22:59:46 72° ENE 23:03:56 10° N
Cosmos 371 Rocket 3.3 22:58:03 10° NNW 23:02:53 80° WSW 23:05:42 25° SSE
Cosmos 1603 4.0 22:58:08 10° NNW 23:03:42 60° WSW 23:07:25 21° S
H-2A R/B 2.7 23:00:47 15° S 23:05:00 53° W 23:10:19 10° NNW
Cosmos 1725 Rocket 4.3 23:06:54 10° NNW 23:13:05 64° W 23:17:52 17° S
Abrixas rocket 2.0 23:10:42 10° WNW 23:13:57 83° SSW 23:14:57 42° ESE
PSLV R/B 3.0 23:18:04 55° SE 23:18:29 65° ENE 23:21:19 10° N
CZ-4C R/B 4.2 23:17:24 28° ESE 23:19:10 44° ENE 23:23:20 10° N
SL-16 R/B 4.4 23:16:48 10° WNW 23:20:05 16° W 23:23:20 10° SW
Cosmos 1943 3.2 23:15:24 10° NNW 23:21:05 84° WSW 23:24:10 28° SSE
Cosmos 1455 2.7 23:17:53 10° N 23:21:40 47° ENE 23:22:49 35° SE
CZ-4C R/B 3.8 23:24:35 15° ESE 23:24:35 15° ESE 23:27:42 10° ENE
Cosmos 220 Rocket 4.3 23:20:53 14° SSW 23:24:39 69° WNW 23:29:02 10° NNE
deb Chang Zheng 4 3.5 23:23:15 10° NNE 23:27:38 78° ESE 23:29:43 31° S
CZ-4B R/B 3.6 23:25:28 10° NNE 23:30:43 61° ESE 23:33:13 30° S
ALOS 2 4.5 23:29:09 15° E 23:31:07 20° ENE 23:34:20 10° NNE
Sich 1 4.2 23:30:53 25° ESE 23:31:41 27° E 23:35:18 10° NNE
CZ-4 R/B 3.8 23:27:51 10° NNE 23:32:46 78° ESE 23:35:11 30° S
Cosmos 540 Rocket 3.6 23:31:21 10° NNW 23:36:29 63° ENE 23:38:48 32° SE
SME Rocket 3.1 23:36:02 39° SE 23:37:20 66° ENE 23:41:53 10° NNW
Cosmos 1707 Rocket 4.1 23:33:46 10° N 23:38:05 46° ENE 23:39:33 33° SE
Cosmos 1464 Rocket 4.2 23:32:03 10° N 23:38:07 59° ENE 23:41:13 30° SE
Tiangong 1 2.5 23:35:28 10° W 23:36:46 23° WSW 23:36:46 23° WSW
Terra 2.6 23:36:22 24° SSW 23:38:54 45° W 23:43:29 10° NNW
Cosmos 2058 3.2 23:38:51 28° SSW 23:40:57 65° W 23:45:09 10° N
Cosmos 1703 3.4 23:40:50 35° SSW 23:42:24 75° W 23:46:24 10° N
Cosmos 1356 4.3 23:44:13 28° SW 23:45:39 46° WNW 23:49:03 10° N
Cosmos 1354 Rocket 3.9 23:46:13 31° S 23:48:47 76° ESE 23:54:02 10° NNE
CZ-2C R/B 3.4 23:49:22 10° NNE 23:54:13 34° E 23:55:34 30° SE
ERBS 3.4 23:51:52 10° WNW 23:54:40 32° WSW 23:54:40 32° WSW
Cosmos 1666 Rocket 3.9 23:54:32 41° SE 23:55:34 50° E 23:59:54 10° NNE
